Simultaneous Nadir Overpasses (SNOs) Predictions

Prediction of SNOs between METOP-B and TERRA Satellite Orbit:

Table of predicted SNOs for the next 14.0 days since TLE Epoch: 8/17/2024
Index Date (METOP-B) Time (METOP-B) Lat,Lon (METOP-B) SZA (METOP-B ) Date (TERRA) Time (TERRA) Lat,Lon (TERRA) SZA (TERRA ) Distance(km) Time Diff (sec)
1 08/17/2024 16:15:38 -79.82, 133.24 112.92 08/17/2024 16:16:24 -79.83, 133.28 112.90 1.04 46
2 08/17/2024 17:06:11 80.05, -57.25 67.43 08/17/2024 17:05:39 80.05, -57.36 67.42 2.15 32
3 08/20/2024 06:45:58 -79.82, -84.39 112.06 08/20/2024 06:46:41 -79.82, -84.36 112.05 0.65 43
4 08/20/2024 07:36:31 80.05, 85.11 68.29 08/20/2024 07:35:56 80.04, 84.96 68.26 3.00 35
5 08/22/2024 21:16:17 -79.83, 58.12 111.17 08/22/2024 21:16:56 -79.83, 58.11 111.16 0.18 39
6 08/22/2024 22:06:53 79.97,-133.29 69.05 08/22/2024 22:06:13 79.97,-133.18 69.05 2.14 40
7 08/25/2024 11:46:34 -79.86,-159.24 110.23 08/25/2024 11:47:08 -79.86,-159.31 110.23 1.43 34
8 08/25/2024 12:37:09 80.02, 9.65 70.03 08/25/2024 12:36:24 80.03, 9.65 70.02 0.41 45
9 08/28/2024 02:16:52 -79.87, -16.74 109.29 08/28/2024 02:17:20 -79.86, -16.89 109.31 3.12 28
10 08/28/2024 03:07:27 80.03, 152.13 70.96 08/28/2024 03:06:36 80.02, 152.03 70.94 2.21 51
11 08/30/2024 16:47:11 -79.83, 125.32 108.41 08/30/2024 16:47:31 -79.84, 125.37 108.40 1.21 20



Historial Predications of SNOs between METOP-B and TERRA
